| time (UTC) | temp C | wind direction | speed KPH | gust KPH | rain 1hr cm | rain 24hr cm | rain mn cm | humidity % | barometer mb |
| 20260510162021 | 20 | 177 | 12.9 | 22.5 | 0.00 | 0.00 | 0.00 | 68 | 1010.3 |
| 20260510161020 | 21 | 182 | 12.9 | 17.7 | 0.00 | 0.00 | 0.00 | 66 | 1010.5 |
| 20260510160040 | 21 | 181 | 11.3 | 17.7 | 0.00 | 0.00 | 0.00 | 65 | 1010.7 |
| 20260510155020 | 21 | 179 | 11.3 | 19.3 | 0.00 | 0.00 | 0.00 | 63 | 1010.7 |
| 20260510154020 | 21 | 192 | 11.3 | 20.9 | 0.00 | 0.00 | 0.00 | 62 | 1010.8 |
| 20260510153020 | 21 | 178 | 11.3 | 20.9 | 0.00 | 0.00 | 0.00 | 63 | 1010.9 |
| 20260510152020 | 21 | 180 | 11.3 | 19.3 | 0.00 | 0.00 | 0.00 | 66 | 1010.9 |
| 20260510151025 | 21 | 186 | 9.7 | 19.3 | 0.00 | 0.00 | 0.00 | 66 | 1010.9 |
| 20260510150021 | 21 | 176 | 11.3 | 17.7 | 0.00 | 0.00 | 0.00 | 66 | 1011.1 |
| 20260510145041 | 21 | 179 | 11.3 | 14.5 | 0.00 | 0.00 | 0.00 | 68 | 1011.1 |
| 20260510144041 | 20 | 181 | 9.7 | 17.7 | 0.00 | 0.00 | 0.00 | 71 | 1011.3 |
| 20260510143042 | 20 | 184 | 9.7 | 20.9 | 0.00 | 0.00 | 0.00 | 73 | 1011.4 |
| 20260510142021 | 21 | 192 | 9.7 | 17.7 | 0.00 | 0.00 | 0.00 | 71 | 1011.4 |
| 20260510141021 | 20 | 193 | 11.3 | 22.5 | 0.00 | 0.00 | 0.00 | 73 | 1011.5 |
| 20260510140021 | 20 | 186 | 11.3 | 19.3 | 0.00 | 0.00 | 0.00 | 71 | 1011.4 |
| 20260510135021 | 21 | 187 | 11.3 | 16.1 | 0.00 | 0.00 | 0.00 | 72 | 1011.6 |
| 20260510134021 | 21 | 182 | 11.3 | 16.1 | 0.00 | 0.00 | 0.00 | 68 | 1011.6 |
| 20260510133023 | 21 | 195 | 11.3 | 22.5 | 0.00 | 0.00 | 0.00 | 67 | 1011.8 |
| 20260510132021 | 21 | 190 | 12.9 | 24.1 | 0.00 | 0.03 | 0.00 | 63 | 1011.9 |
| 20260510131026 | 20 | 181 | 11.3 | 20.9 | 0.00 | 0.08 | 0.00 | 67 | 1011.9 |
| 20260510130021 | 21 | 180 | 11.3 | 20.9 | 0.00 | 0.15 | 0.00 | 68 | 1012.1 |
| 20260510125021 | 21 | 189 | 11.3 | 24.1 | 0.00 | 0.20 | 0.00 | 59 | 1012.4 |
| 20260510124021 | 21 | 185 | 9.7 | 19.3 | 0.00 | 0.20 | 0.00 | 66 | 1012.7 |
| 20260510123025 | 20 | 176 | 11.3 | 20.9 | 0.00 | 0.20 | 0.00 | 73 | 1012.7 |
| 20260510122021 | 21 | 179 | 11.3 | 24.1 | 0.00 | 0.23 | 0.00 | 69 | 1012.8 |
| 20260510121021 | 21 | 174 | 11.3 | 17.7 | 0.00 | 0.23 | 0.00 | 63 | 1012.7 |
| 20260510120021 | 21 | 174 | 9.7 | 19.3 | 0.00 | 0.25 | 0.00 | 60 | 1012.8 |
| 20260510115021 | 22 | 179 | 8.0 | 12.9 | 0.00 | 0.28 | 0.00 | 54 | 1012.8 |
| 20260510114021 | 22 | 186 | 8.0 | 14.5 | 0.00 | 0.43 | 0.00 | 54 | 1012.8 |
| 20260510113021 | 22 | 173 | 11.3 | 20.9 | 0.00 | 0.53 | 0.00 | 53 | 1012.8 |
| 20260510112021 | 22 | 178 | 9.7 | 16.1 | 0.00 | 0.64 | 0.00 | 51 | 1012.8 |
| 20260510111020 | 22 | 173 | 9.7 | 14.5 | 0.00 | 0.66 | 0.00 | 52 | 1012.9 |
| 20260510110021 | 22 | 203 | 8.0 | 14.5 | 0.00 | 0.74 | 0.00 | 52 | 1013.0 |
| 20260510105020 | 22 | 217 | 8.0 | 17.7 | 0.00 | 0.91 | 0.00 | 54 | 1013.2 |
| 20260510104020 | 21 | 180 | 8.0 | 14.5 | 0.00 | 1.02 | 0.00 | 57 | 1013.3 |
| 20260510103040 | 21 | 188 | 6.4 | 16.1 | 0.00 | 1.04 | 0.00 | 58 | 1013.5 |
| 20260510102020 | 21 | 181 | 8.0 | 14.5 | 0.00 | 1.07 | 0.00 | 60 | 1013.5 |
| 20260510101020 | 21 | 180 | 8.0 | 11.3 | 0.00 | 1.07 | 0.00 | 58 | 1013.5 |
| 20260510100020 | 22 | 191 | 6.4 | 9.7 | 0.00 | 1.07 | 0.00 | 54 | 1013.6 |
| 20260510095041 | 22 | 173 | 6.4 | 11.3 | 0.00 | 1.09 | 0.00 | 53 | 1013.6 |
| 20260510094021 | 22 | 185 | 4.8 | 9.7 | 0.00 | 1.09 | 0.00 | 51 | 1013.6 |
| 20260510093021 | 21 | 208 | 4.8 | 8.0 | 0.00 | 1.09 | 0.00 | 57 | 1013.8 |
| 20260510092021 | 22 | 160 | 4.8 | 9.7 | 0.00 | 1.14 | 0.00 | 60 | 1013.7 |
| 20260510091020 | 21 | 165 | 3.2 | 8.0 | 0.00 | 1.17 | 0.00 | 57 | 1013.7 |
| 20260510090021 | 21 | 244 | 3.2 | 4.8 | 0.00 | 1.27 | 0.00 | 54 | 1013.6 |
| 20260510085021 | 21 | 181 | 3.2 | 4.8 | 0.00 | 1.32 | 0.00 | 55 | 1013.8 |
| 20260510084021 | 21 | 210 | 3.2 | 6.4 | 0.00 | 1.37 | 0.00 | 55 | 1013.8 |
| 20260510083021 | 20 | 252 | 4.8 | 9.7 | 0.00 | 1.37 | 0.00 | 56 | 1013.7 |
| 20260510082021 | 20 | 284 | 4.8 | 9.7 | 0.00 | 1.37 | 0.00 | 62 | 1013.7 |
| 20260510081021 | 19 | 161 | 3.2 | 6.4 | 0.00 | 1.37 | 0.00 | 69 | 1013.8 |
| 20260510080021 | 18 | 145 | 3.2 | 6.4 | 0.00 | 1.37 | 0.00 | 69 | 1014.0 |
| 20260510075021 | 18 | 209 | 3.2 | 6.4 | 0.00 | 1.40 | 0.00 | 72 | 1014.0 |
| 20260510074023 | 18 | 243 | 3.2 | 8.0 | 0.00 | 1.40 | 0.00 | 72 | 1013.9 |
| 20260510073041 | 17 | 197 | 1.6 | 6.4 | 0.00 | 1.40 | 0.00 | 77 | 1014.0 |
| 20260510072021 | 16 | 257 | 1.6 | 6.4 | 0.00 | 1.40 | 0.00 | 83 | 1014.0 |
| 20260510071021 | 15 | 210 | 3.2 | 8.0 | 0.00 | 1.45 | 0.00 | 91 | 1013.9 |
| 20260510070021 | 15 | 215 | 3.2 | 6.4 | 0.00 | 1.47 | 0.00 | 91 | 1013.9 |
| 20260510065021 | 14 | 164 | 1.6 | 4.8 | 0.00 | 1.47 | 0.00 | 93 | 1013.9 |
| 20260510064021 | 13 | 256 | 1.6 | 6.4 | 0.00 | 1.47 | 0.00 | 95 | 1013.8 |
| 20260510063021 | 12 | 130 | 3.2 | 6.4 | 0.00 | 1.50 | 0.00 | 96 | 1013.7 |
| 20260510062021 | 12 | 135 | 1.6 | 4.8 | 0.00 | 1.65 | 0.00 | 96 | 1013.6 |
| 20260510061021 | 11 | 138 | 3.2 | 6.4 | 0.00 | 1.75 | 0.00 | 97 | 1013.6 |
| 20260510060021 | 12 | 138 | 3.2 | 6.4 | 0.00 | 1.75 | 0.00 | 97 | 1013.5 |
| 20260510055021 | 11 | 134 | 3.2 | 6.4 | 0.00 | 1.75 | 0.00 | 97 | 1013.4 |
| 20260510054040 | 11 | 128 | 1.6 | 4.8 | 0.00 | 1.75 | 0.00 | 97 | 1013.4 |
| 20260510053021 | 11 | 116 | 1.6 | 6.4 | 0.00 | 1.75 | 0.00 | 97 | 1013.3 |
| 20260510052020 | 11 | 188 | 1.6 | 4.8 | 0.00 | 1.75 | 0.00 | 97 | 1013.3 |
| 20260510051021 | 11 | 136 | 3.2 | 6.4 | 0.00 | 1.75 | 0.00 | 97 | 1013.2 |
| 20260510050021 | 11 | 153 | 3.2 | 9.7 | 0.00 | 1.75 | 0.00 | 97 | 1013.2 |
| 20260510045021 | 11 | 113 | 3.2 | 6.4 | 0.00 | 1.75 | 0.00 | 97 | 1013.1 |
| 20260510044041 | 11 | 163 | 3.2 | 6.4 | 0.00 | 1.75 | 0.00 | 97 | 1013.1 |
| 20260510043021 | 11 | 165 | 1.6 | 6.4 | 0.00 | 1.75 | 0.00 | 97 | 1013.0 |
| 20260510042021 | 11 | 144 | 1.6 | 4.8 | 0.00 | 1.75 | 0.00 | 97 | 1013.1 |
| 20260510041021 | 11 | 146 | 3.2 | 6.4 | 0.00 | 1.75 | 0.00 | 97 | 1013.0 |
| 20260510040021 | 11 | 15 | 1.6 | 6.4 | 0.00 | 1.75 | 0.00 | 97 | 1013.0 |
| 20260510035020 | 11 | 121 | 1.6 | 6.4 | 0.00 | 1.75 | 0.00 | 97 | 1013.0 |
| 20260510034020 | 11 | 160 | 4.8 | 6.4 | 0.00 | 1.75 | 0.00 | 97 | 1012.9 |
| 20260510033021 | 10 | 187 | 3.2 | 6.4 | 0.00 | 1.75 | 0.00 | 98 | 1012.8 |
| 20260510032021 | 11 | 152 | 3.2 | 8.0 | 0.00 | 1.75 | 0.00 | 97 | 1012.8 |
| 20260510031021 | 11 | 109 | 1.6 | 6.4 | 0.00 | 1.75 | 0.00 | 97 | 1012.9 |
| 20260510030020 | 11 | 153 | 3.2 | 9.7 | 0.00 | 1.75 | 0.00 | 97 | 1012.9 |
| 20260510025021 | 11 | 164 | 3.2 | 9.7 | 0.00 | 1.75 | 0.00 | 97 | 1012.9 |
| 20260510024020 | 11 | 23 | 3.2 | 8.0 | 0.00 | 1.75 | 0.00 | 97 | 1012.9 |
| 20260510023020 | 11 | 169 | 1.6 | 8.0 | 0.00 | 1.75 | 0.00 | 97 | 1012.8 |
| 20260510022020 | 11 | 263 | 3.2 | 8.0 | 0.00 | 1.75 | 0.00 | 97 | 1012.7 |
| 20260510021020 | 11 | 208 | 1.6 | 4.8 | 0.00 | 1.75 | 0.00 | 97 | 1012.8 |
| 20260510020020 | 11 | 168 | 3.2 | 8.0 | 0.00 | 1.75 | 0.00 | 97 | 1012.8 |
| 20260510015020 | 11 | 211 | 1.6 | 6.4 | 0.00 | 1.75 | 0.00 | 96 | 1012.8 |
| 20260510014040 | 12 | 174 | 4.8 | 8.0 | 0.00 | 1.75 | 0.00 | 96 | 1012.8 |
| 20260510013020 | 11 | 336 | 3.2 | 8.0 | 0.00 | 1.75 | 0.00 | 96 | 1012.9 |
| 20260510012020 | 11 | 171 | 1.6 | 6.4 | 0.00 | 1.75 | 0.00 | 95 | 1012.9 |
| 20260510011021 | 12 | 186 | 0.0 | 3.2 | 0.00 | 1.75 | 0.00 | 95 | 1012.9 |
| 20260510010021 | 12 | 0.0 | 1.6 | 0.00 | 1.75 | 0.00 | 96 | 1013.0 | |
| 20260510005101 | 12 | 158 | 0.0 | 3.2 | 0.00 | 1.75 | 0.00 | 95 | 1013.2 |
| 20260510004021 | 12 | 218 | 0.0 | 3.2 | 0.00 | 1.75 | 0.00 | 95 | 1013.2 |
| 20260510003021 | 12 | 162 | 0.0 | 3.2 | 0.00 | 1.75 | 0.00 | 94 | 1013.3 |
| 20260510002021 | 12 | 144 | 1.6 | 3.2 | 0.00 | 1.75 | 0.00 | 94 | 1013.4 |
| 20260510001021 | 13 | 112 | 0.0 | 3.2 | 0.00 | 1.75 | 0.00 | 94 | 1013.6 |
| 20260510000020 | 13 | 312 | 0.0 | 1.6 | 0.00 | 1.75 | 0.00 | 93 | 1013.7 |
| 20260509235020 | 13 | 121 | 1.6 | 3.2 | 0.00 | 1.75 | 0.00 | 92 | 1013.5 |
| 20260509234041 | 13 | 308 | 0.0 | 3.2 | 0.00 | 1.75 | 0.00 | 92 | 1013.7 |
| 20260509233020 | 13 | 136 | 3.2 | 6.4 | 0.00 | 1.75 | 0.00 | 91 | 1013.7 |
| 20260509232020 | 13 | 109 | 1.6 | 4.8 | 0.00 | 1.75 | 0.00 | 89 | 1013.6 |
| 20260509231020 | 14 | 228 | 0.0 | 3.2 | 0.00 | 1.75 | 0.00 | 88 | 1013.7 |
| 20260509230021 | 14 | 283 | 1.6 | 4.8 | 0.00 | 1.75 | 0.00 | 88 | 1013.5 |
| 20260509225021 | 14 | 50 | 0.0 | 3.2 | 0.00 | 1.75 | 0.00 | 90 | 1013.6 |
| 20260509224021 | 13 | 266 | 1.6 | 4.8 | 0.00 | 1.75 | 0.00 | 92 | 1013.7 |
| 20260509223021 | 13 | 267 | 0.0 | 3.2 | 0.00 | 1.75 | 0.00 | 90 | 1013.6 |
| 20260509222021 | 14 | 133 | 3.2 | 6.4 | 0.00 | 1.75 | 0.00 | 90 | 1013.6 |
| 20260509221020 | 14 | 334 | 1.6 | 4.8 | 0.00 | 1.75 | 0.00 | 89 | 1013.8 |
| 20260509220021 | 15 | 44 | 3.2 | 6.4 | 0.00 | 1.75 | 0.00 | 88 | 1013.7 |
| 20260509215021 | 15 | 354 | 4.8 | 8.0 | 0.00 | 1.75 | 1.75 | 86 | 1013.7 |
| 20260509214021 | 15 | 342 | 6.4 | 11.3 | 0.00 | 1.75 | 1.75 | 87 | 1013.7 |
| 20260509213021 | 15 | 313 | 4.8 | 8.0 | 0.00 | 1.75 | 1.75 | 89 | 1013.7 |
| 20260509212021 | 15 | 312 | 1.6 | 4.8 | 0.00 | 1.75 | 1.75 | 89 | 1013.5 |
| 20260509211021 | 15 | 156 | 0.0 | 3.2 | 0.00 | 1.75 | 1.75 | 89 | 1013.6 |
| 20260509210021 | 15 | 166 | 0.0 | 1.6 | 0.00 | 1.75 | 1.75 | 87 | 1013.4 |
| 20260509205021 | 15 | 100 | 0.0 | 3.2 | 0.00 | 1.75 | 1.75 | 87 | 1013.4 |
| 20260509204041 | 15 | 311 | 1.6 | 6.4 | 0.00 | 1.75 | 1.75 | 86 | 1013.5 |
| 20260509203021 | 15 | 223 | 1.6 | 4.8 | 0.00 | 1.75 | 1.75 | 86 | 1013.5 |
| 20260509202021 | 15 | 173 | 3.2 | 6.4 | 0.00 | 1.75 | 1.75 | 86 | 1013.2 |
| 20260509201021 | 15 | 202 | 3.2 | 8.0 | 0.00 | 1.75 | 1.75 | 87 | 1013.0 |
| 20260509200021 | 15 | 216 | 3.2 | 8.0 | 0.00 | 1.75 | 1.75 | 87 | 1012.9 |
| 20260509195041 | 15 | 185 | 3.2 | 6.4 | 0.00 | 1.75 | 1.75 | 87 | 1012.7 |
| 20260509194021 | 15 | 181 | 3.2 | 4.8 | 0.00 | 1.75 | 1.75 | 88 | 1012.6 |
| 20260509193021 | 15 | 177 | 1.6 | 3.2 | 0.00 | 1.75 | 1.75 | 89 | 1012.4 |
| 20260509192021 | 15 | 164 | 1.6 | 3.2 | 0.00 | 1.75 | 1.75 | 89 | 1012.3 |
| 20260509191041 | 16 | 302 | 0.0 | 1.6 | 0.00 | 1.75 | 1.75 | 88 | 1012.3 |
| 20260509190021 | 16 | 0.0 | 1.6 | 0.00 | 1.75 | 1.75 | 87 | 1012.3 | |
| 20260509185021 | 16 | 355 | 0.0 | 3.2 | 0.00 | 1.75 | 1.75 | 87 | 1012.2 |
| 20260509184021 | 16 | 134 | 0.0 | 3.2 | 0.00 | 1.75 | 1.75 | 86 | 1012.0 |
| 20260509183021 | 16 | 159 | 0.0 | 3.2 | 0.00 | 1.75 | 1.75 | 84 | 1011.7 |
| 20260509182021 | 16 | 243 | 1.6 | 9.7 | 0.00 | 1.75 | 1.75 | 85 | 1011.6 |
| 20260509181020 | 16 | 331 | 8.0 | 12.9 | 0.00 | 1.75 | 1.75 | 83 | 1011.4 |
| 20260509180021 | 17 | 320 | 6.4 | 12.9 | 0.00 | 1.75 | 1.75 | 81 | 1011.5 |
| 20260509175021 | 17 | 306 | 4.8 | 12.9 | 0.00 | 1.75 | 1.75 | 80 | 1011.4 |
| 20260509174020 | 18 | 262 | 3.2 | 9.7 | 0.00 | 1.75 | 1.75 | 78 | 1011.3 |
| 20260509173041 | 18 | 268 | 4.8 | 11.3 | 0.00 | 1.75 | 1.75 | 78 | 1011.2 |
| 20260509172021 | 18 | 239 | 4.8 | 8.0 | 0.00 | 1.75 | 1.75 | 80 | 1011.2 |
| 20260509171021 | 17 | 325 | 11.3 | 24.1 | 0.00 | 1.75 | 1.75 | 80 | 1011.0 |
| 20260509170022 | 18 | 314 | 8.0 | 27.4 | 0.00 | 1.75 | 1.75 | 78 | 1010.8 |
| 20260509165020 | 18 | 339 | 8.0 | 19.3 | 0.00 | 1.75 | 1.75 | 76 | 1011.0 |
| 20260509164020 | 18 | 232 | 4.8 | 9.7 | 0.00 | 1.75 | 1.75 | 79 | 1010.8 |
| 20260509163021 | 17 | 161 | 3.2 | 6.4 | 0.00 | 1.75 | 1.75 | 81 | 1010.8 |